Location: Ajisawe
(8.4333°N, 4.3833°E)
Time: 07:05:07
(UTC+00:00)

A-11 Canister half - All Passes

Search period start: 20 April 2021 00:00
Search period end: 30 April 2021 00:00
Orbit: 1525 x 1683 km, 47.3° (Epoch: 19 April)

Date Brightness Start Highest point End Pass type
(mag) Time Alt. Az. Time Alt. Az. Time Alt. Az.
20 Apr - 00:13:16 10° NW 00:22:40 50° SW 00:31:48 10° SSE night (unlit)
20 Apr - 11:04:50 10° SSW 11:13:22 36° SE 11:22:07 10° ENE daylight
20 Apr - 13:08:54 10° WSW 13:18:11 50° NW 13:27:48 10° NNE daylight
20 Apr - 21:47:03 10° NNW 21:55:57 35° NE 22:04:34 10° ESE visible
20 Apr - 23:51:29 10° NW 00:01:01 53° SW 00:10:17 10° SSE night (unlit)
21 Apr - 10:43:24 10° S 10:51:43 34° SE 11:00:13 10° ENE daylight
21 Apr - 12:47:09 10° WSW 12:56:30 53° NW 13:06:11 10° NNE daylight
21 Apr - 15:01:05 10° NW 15:03:11 11° NNW 15:05:17 10° NNW daylight
21 Apr - 21:25:30 10° NNW 21:34:14 33° NE 21:42:43 10° ESE visible
21 Apr - 23:29:42 10° NW 23:39:21 57° SW 23:48:44 10° SSE visible
22 Apr - 10:21:59 10° S 10:30:04 31° SE 10:38:18 10° ENE daylight
22 Apr - 12:25:24 10° SW 12:34:48 57° NW 12:44:33 10° NNE daylight
22 Apr - 14:38:13 10° NW 14:41:21 12° NW 14:44:30 10° NNW daylight
22 Apr - 21:03:56 10° NNW 21:12:30 31° NE 21:20:48 10° ESE visible
22 Apr - 23:07:55 10° NW 23:17:42 62° SW 23:27:11 10° SSE visible
23 Apr - 10:00:35 10° S 10:08:24 29° SE 10:16:22 10° ENE daylight
23 Apr - 12:03:41 10° SW 12:13:07 61° NW 12:22:55 10° NNE daylight
23 Apr - 14:15:39 10° WNW 14:19:32 13° NW 14:23:26 10° NNW daylight
23 Apr - 20:42:24 10° NNW 20:50:45 29° NE 20:58:54 10° E visible
23 Apr - 22:46:10 10° NW 22:56:03 66° SW 23:05:37 10° SSE visible
24 Apr - 09:39:13 10° S 09:46:44 26° SE 09:54:25 10° ENE daylight
24 Apr - 11:41:58 10° SW 11:51:27 65° NW 12:01:16 10° NNE daylight
24 Apr - 13:53:14 10° WNW 13:57:43 14° NW 14:02:15 10° N daylight
24 Apr - 20:20:52 10° NNW 20:29:01 27° NE 20:36:57 10° E visible
24 Apr - 22:24:25 10° NW 22:34:22 71° SW 22:44:02 10° SSE visible
25 Apr - 00:36:33 10° WSW 00:39:14 11° SW 00:41:54 10° SW night (unlit)
25 Apr - 09:17:53 10° S 09:25:05 24° SE 09:32:25 10° ENE daylight
25 Apr - 11:20:16 10° SW 11:29:46 69° NW 11:39:37 10° NNE daylight
25 Apr - 13:30:56 10° WNW 13:35:55 15° NW 13:40:59 10° N daylight
25 Apr - 19:59:22 10° N 20:07:16 25° NE 20:15:00 10° E visible
25 Apr - 22:02:41 10° NW 22:12:43 75° SW 22:22:26 10° SSE visible
26 Apr - 00:13:43 10° WSW 00:17:32 13° SW 00:21:20 10° SSW night (unlit)
26 Apr - 08:56:34 10° S 09:03:26 22° SE 09:10:24 10° E daylight
26 Apr - 10:58:36 10° SW 11:08:06 74° NW 11:17:58 10° NE daylight
26 Apr - 13:08:42 10° WNW 13:14:07 16° NW 13:19:39 10° N daylight
26 Apr - 19:37:51 10° N 19:45:31 24° NE 19:53:00 10° E visible
26 Apr - 21:40:59 10° NW 21:51:03 80° SW 22:00:50 10° SE visible
26 Apr - 23:51:10 10° W 23:55:51 14° SW 00:00:29 10° SSW night (unlit)
27 Apr - 08:35:18 10° S 08:41:46 20° SE 08:48:20 10° E daylight
27 Apr - 10:36:55 10° SW 10:46:26 79° NW 10:56:17 10° NE daylight
27 Apr - 12:46:31 10° WNW 12:52:20 17° NW 12:58:17 10° N daylight
27 Apr - 19:16:23 10° N 19:23:45 22° NE 19:30:59 10° E visible
27 Apr - 21:19:15 10° NW 21:29:22 85° SW 21:39:12 10° SE visible
27 Apr - 23:28:48 10° W 23:34:09 16° SW 23:39:28 10° SSW night (unlit)
28 Apr - 08:14:04 10° S 08:20:06 19° SE 08:26:13 10° E daylight
28 Apr - 10:15:16 10° SW 10:24:47 84° NW 10:34:37 10° NE daylight
28 Apr - 12:24:23 10° W 12:30:34 18° NW 12:36:53 10° N daylight
28 Apr - 18:54:55 10° N 19:01:58 21° NE 19:08:55 10° E visible
28 Apr - 20:57:33 10° NW 21:07:42 90° ENE 21:17:33 10° SE visible
28 Apr - 23:06:32 10° W 23:12:28 17° SW 23:18:21 10° SSW visible
29 Apr - 07:52:54 10° SSE 07:58:27 17° SE 08:04:01 10° E daylight
29 Apr - 09:53:38 10° SW 10:03:07 89° NW 10:12:57 10° NE daylight
29 Apr - 12:02:18 10° W 12:08:48 20° NW 12:15:27 10° N daylight
29 Apr - 18:33:29 10° N 18:40:12 19° NE 18:46:49 10° E visible
29 Apr - 20:35:52 10° NW 20:46:02 85° NE 20:55:54 10° SE visible
29 Apr - 22:44:21 10° W 22:50:48 19° SW 22:57:10 10° S visible
